TimeIST,TemperatureF,Dew PointF,Humidity,Sea Level PressureIn,VisibilityMPH,Wind Direction,Wind SpeedMPH,Gust SpeedMPH,PrecipitationIn,Events,Conditions,WindDirDegrees,DateUTC
12:50 AM,75.2,66.2,73,29.98,5.0,East,4.6,-,N/A,,Unknown,100,2012-10-16 22:50:00
1:50 AM,73.4,66.2,78,29.95,5.0,South,2.3,-,N/A,,Unknown,180,2012-10-16 23:50:00
2:00 AM,74,66,70,29.97,5,South,2.3,,,,Mist,180,2012-10-17 00:00:00
2:48 AM,73.4,64.4,73,29.95,4.3,Variable,1.2,-,N/A,,Mostly Cloudy,0,2012-10-17 00:48:00
2:50 AM,73.4,64.4,73,29.95,4.3,Variable,1.2,-,N/A,,Mostly Cloudy,0,2012-10-17 00:50:00
3:40 AM,71.6,62.6,73,29.95,5.6,Variable,1.2,-,N/A,,Partly Cloudy,0,2012-10-17 01:40:00
3:50 AM,71.6,62.6,73,29.95,5.6,Variable,1.2,-,N/A,,Partly Cloudy,0,2012-10-17 01:50:00
4:50 AM,69.8,62.6,78,29.98,5.6,Variable,2.3,-,N/A,,Scattered Clouds,0,2012-10-17 02:50:00
5:50 AM,69.8,60.8,73,29.98,5.0,ESE,4.6,-,N/A,,Partly Cloudy,120,2012-10-17 03:50:00
6:23 AM,71.6,62.6,73,30.01,4.3,SE,4.6,-,N/A,,Mostly Cloudy,130,2012-10-17 04:23:00
6:50 AM,73.4,64.4,73,30.01,5.0,SE,5.8,-,N/A,,Mostly Cloudy,130,2012-10-17 04:50:00
7:07 AM,73.4,66.2,78,30.01,4.3,ESE,4.6,-,N/A,,Scattered Clouds,110,2012-10-17 05:07:00
7:47 AM,77.0,69.8,78,30.01,3.1,East,5.8,-,N/A,,Scattered Clouds,100,2012-10-17 05:47:00
7:50 AM,77.0,69.8,78,30.01,3.1,East,5.8,-,N/A,,Scattered Clouds,100,2012-10-17 05:50:00
8:00 AM,77,70,72,30.01,3,East,5.8,,,,Mist,100,2012-10-17 06:00:00
8:32 AM,78.8,69.8,74,30.01,3.7,East,4.6,-,N/A,,Scattered Clouds,80,2012-10-17 06:32:00
8:50 AM,80.6,69.8,70,30.01,4.3,North,3.5,-,N/A,,Scattered Clouds,360,2012-10-17 06:50:00
9:50 AM,82.4,68.0,62,29.98,5.6,NE,5.8,-,N/A,,Unknown,40,2012-10-17 07:50:00
10:50 AM,89.6,62.6,40,29.95,-9999.0,NE,3.5,-,N/A,,Clear,50,2012-10-17 08:50:00
11:50 AM,91.4,62.6,38,29.95,-9999.0,NW,9.2,-,N/A,,Clear,310,2012-10-17 09:50:00
12:50 PM,87.8,66.2,49,29.92,-9999.0,NNW,9.2,-,N/A,,Clear,330,2012-10-17 10:50:00
1:50 PM,86.0,66.2,51,29.92,-9999.0,NW,9.2,-,N/A,,Clear,320,2012-10-17 11:50:00
2:00 PM,86,65,41,29.93,6,NW,9.2,,,,Partly Cloudy,320,2012-10-17 12:00:00
2:50 PM,86.0,64.4,48,29.92,-9999.0,WNW,4.6,-,N/A,,Clear,300,2012-10-17 12:50:00
3:50 PM,87.8,62.6,43,29.92,-9999.0,NNW,9.2,-,N/A,,Clear,330,2012-10-17 13:50:00
4:50 PM,84.2,64.4,51,29.92,-9999.0,NW,8.1,-,N/A,,Clear,310,2012-10-17 14:50:00
5:50 PM,82.4,68.0,62,29.92,-9999.0,NNW,5.8,-,N/A,,Clear,330,2012-10-17 15:50:00
6:50 PM,80.6,68.0,65,29.92,-9999.0,North,3.5,-,N/A,,Clear,360,2012-10-17 16:50:00
7:50 PM,80.6,68.0,65,29.92,-9999.0,Variable,1.2,-,N/A,,Clear,0,2012-10-17 17:50:00
8:00 PM,80,68,59,29.93,6,,1.2,,,,Clear,,2012-10-17 18:00:00
8:50 PM,78.8,69.8,74,29.92,-9999.0,NNW,5.8,-,N/A,,Clear,330,2012-10-17 18:50:00
9:50 PM,78.8,71.6,78,29.92,-9999.0,North,2.3,-,N/A,,Clear,350,2012-10-17 19:50:00
10:50 PM,77.0,69.8,78,29.92,-9999.0,ESE,3.5,-,N/A,,Clear,120,2012-10-17 20:50:00
11:50 PM,73.4,68.0,83,29.92,-9999.0,Calm,Calm,-,N/A,,Clear,0,2012-10-17 21:50:00